Temperature
19 20 20 20 19 19 19 19 19 19 19 19 19 19 19 19 19 19 19 19 18 18 18 18 18 18 18 18 18 19 19 19 19 19 19 19 19 19 18 18 18 18 18
20 20 20 20 19 19 19 19 19 19 19 19 19 19 19 19 19 19 19 18 18 18 18 18 18 18 18 18 18 19 19 19 19 19 19 19 19 18 18 18 18 18 18
20 20 20 20 19 19 19 19 19 19 19 19 19 19 19 19 19 18 18 18 18 18 18 18 18 18 18 18 18 18 19 19 19 18 18 18 18 18 18 18 18 18 18
20 20 20 20 20 19 19 19 19 19 19 19 19 19 19 19 19 18 18 18 18 18 18 18 18 18 18 18 18 18 19 18 18 18 18 18 18 18 18 18 18 18 18
20 20 20 20 20 20 20 20 20 19 19 19 19 19 19 19 19 19 18 18 18 18 18 18 18 18 18 18 18 19 19 18 18 18 18 18 18 18 18 18 18 18 18
20 20 20 20 20 20 20 20 20 19 19 19 19 19 19 19 19 18 18 18 18 18 18 18 18 18 18 18 19 19 19 18 18 18 18 18 18 18 18 18 18 18 18
20 20 20 20 20 20 20 20 20 19 19 19 19 19 19 19 19 19 18 18 18 18 18 18 18 18 18 18 19 19 19 19 18 18 18 18 18 18 18 18 18 18 18
20 20 20 20 20 20 20 20 19 19 19 19 19 19 19 19 19 19 18 18 18 18 18 18 18 18 18 19 19 19 19 19 18 18 18 18 18 18 18 18 18 18 18
21 20 20 20 20 20 20 20 19 19 19 19 19 19 19 19 19 19 18 18 18 18 18 18 18 18 18 19 19 19 19 19 19 18 18 18 18 18 18 18 18 18 18
21 21 20 20 20 20 20 20 19 19 19 19 19 19 19 19 19 18 18 19 18 18 18 18 18 18 19 19 19 19 18 19 19 18 18 18 18 18 18 18 18 18 18
22 21 21 20 20 20 19 19 19 19 19 19 19 19 19 18 18 18 18 19 19 19 19 19 18 18 19 19 19 19 19 18 18 18 18 19 18 18 18 18 18 18 18
22 21 21 21 20 20 20 20 19 19 19 19 19 19 19 18 18 18 19 19 19 19 18 18 18 18 18 18 18 18 19 18 18 18 19 19 18 18 18 18 18 18 18
22 22 21 21 21 20 20 20 19 19 19 19 19 19 19 19 19 19 19 19 19 18 18 18 18 18 18 18 18 18 18 18 18 18 19 19 18 18 18 18 18 18 18
22 22 21 21 21 20 20 20 20 20 19 19 19 19 19 19 19 19 19 19 18 18 18 18 18 18 18 18 18 18 18 18 18 18 19 18 18 18 18 18 18 18 18
23 22 21 21 21 20 20 20 20 20 19 19 19 19 19 19 19 19 19 19 19 19 19 18 18 18 18 18 18 18 18 18 18 18 18 18 18 18 18 18 18 18 18
22 22 21 21 20 20 20 20 20 20 20 19 19 19 19 19 19 19 19 19 19 19 19 19 19 18 18 18 18 18 18 18 18 18 18 18 18 18 18 18 18 18 18
22 22 21 21 20 20 20 20 20 20 20 19 19 19 19 19 19 19 19 19 19 19 19 19 18 18 18 18 18 18 18 18 18 18 18 18 18 18 18 18 18 18 18
22 22 21 21 20 20 20 20 20 20 20 19 19 19 19 19 19 19 19 19 19 19 19 19 19 18 18 18 18 18 18 18 18 18 18 18 18 18 18 18 18 18 18
22 21 21 21 20 20 20 20 20 20 20 19 19 19 19 19 19 19 19 19 19 19 19 19 19 18 18 18 18 18 18 18 18 18 18 18 18 18 18 18 18 18 18
22 21 21 20 20 20 20 20 20 20 19 19 19 19 19 19 19 19 19 19 19 18 19 19 19 19 19 19 19 19 19 19 19 18 18 18 18 18 18 18 18 17 17
22 21 21 21 20 20 20 20 20 19 19 19 19 19 19 19 19 19 19 19 19 18 18 18 18 18 19 19 19 19 19 19 19 19 18 18 18 18 18 18 18 17 17
22 21 21 21 20 20 20 20 20 20 19 19 19 19 19 19 19 19 19 19 19 18 18 18 18 18 18 18 19 19 19 19 19 19 19 18 18 18 18 18 18 17 17
23 22 21 21 21 20 20 20 20 20 19 19 19 19 19 19 19 19 19 18 18 18 18 18 18 18 18 18 18 19 18 18 18 19 19 18 18 18 18 18 18 17 17
23 22 22 21 21 21 20 20 20 20 20 19 19 19 19 19 19 19 19 19 18 18 18 18 18 18 18 18 18 19 19 19 19 18 18 18 18 18 18 18 18 18 17
24 23 22 21 21 21 20 20 20 20 20 19 19 19 19 19 19 19 19 19 18 18 18 18 18 18 18 18 18 19 19 19 19 19 18 18 18 18 18 18 18 18 17
24 23 22 21 21 21 21 20 20 20 20 19 19 19 19 19 19 19 18 18 18 18 18 18 18 18 18 18 18 18 18 18 19 19 19 19 18 18 18 18 18 18 17
Wind_Speed
11 12 12 13 13 14 14 13 12 11 11 12 12 12 12 13 13 13 13 13 13 13 13 12 12 12 12 12 12 11 11 10 10 11 11 11 10 10 9 8 9 11 12
14 13 14 13 13 14 14 13 12 11 11 11 11 11 11 12 12 11 11 12 12 12 12 11 11 11 11 11 11 10 9 9 9 10 11 10 10 9 8 8 10 11 12
15 14 14 14 13 13 13 12 11 11 11 11 11 11 11 11 10 10 11 11 11 11 11 10 10 11 11 10 10 9 8 7 8 8 9 8 9 9 9 11 12 12 12
15 14 15 14 13 13 12 12 11 11 10 10 10 10 10 10 9 10 10 11 11 10 10 10 10 10 10 10 9 8 7 6 6 6 5 7 9 11 11 11 11 11 11
15 15 15 14 13 13 12 12 11 10 10 9 10 10 10 10 10 10 11 11 10 10 10 10 10 10 9 8 7 6 5 5 4 4 4 8 11 12 12 11 11 11 10
15 16 15 14 13 13 12 11 11 10 9 9 9 10 10 10 10 10 11 10 9 9 9 9 9 9 8 7 6 4 4 4 4 4 7 11 12 12 12 11 11 11 10
14 15 15 14 13 13 11 10 10 9 9 8 9 9 10 10 10 10 10 9 8 9 9 9 8 8 7 6 4 3 2 2 4 3 9 12 13 13 12 11 11 10 10
14 14 15 14 13 12 11 10 9 8 8 8 9 9 9 9 9 9 9 8 7 8 8 8 8 7 6 4 3 3 2 3 1 4 10 12 14 13 12 11 10 10 9
14 13 12 13 12 11 10 9 9 8 8 8 8 9 9 9 8 8 9 8 7 7 7 7 7 6 5 5 4 3 3 4 3 3 9 11 13 12 11 10 10 9 9
12 11 11 12 11 11 10 10 10 9 9 9 8 8 8 8 8 9 9 8 7 7 7 7 7 6 5 5 4 4 3 4 2 5 10 12 14 12 11 9 9 8 8
10 9 9 9 9 10 11 11 10 9 9 9 8 8 8 7 7 8 9 10 8 7 7 7 7 6 5 5 5 5 3 3 2 6 10 14 13 12 10 9 8 8 7
9 9 8 8 7 7 7 9 8 8 8 7 6 6 6 5 6 7 10 10 9 8 7 8 8 7 6 5 5 5 3 2 3 8 11 14 12 10 10 8 8 7 6
9 8 8 8 6 5 5 6 5 5 7 6 6 6 5 4 5 6 6 8 8 8 6 7 7 6 4 3 3 3 3 3 4 8 11 12 12 10 9 8 7 7 6
9 8 8 8 6 4 4 3 4 3 4 5 5 5 4 3 2 3 3 4 4 4 4 4 3 3 3 3 1 2 1 3 6 9 11 12 12 11 9 8 7 7 7
10 9 8 8 6 5 3 1 3 4 4 5 5 4 3 3 2 3 3 3 3 4 4 3 2 3 3 2 1 2 1 3 6 7 9 12 11 10 9 9 8 7 7
9 9 9 8 7 5 3 1 2 3 5 5 5 5 3 3 3 2 2 1 1 2 3 3 2 3 2 2 2 2 2 3 5 7 9 10 10 10 10 9 8 7 7
9 8 8 9 8 5 3 2 2 3 5 5 5 5 4 4 3 2 2 2 1 2 3 3 3 3 3 2 3 2 2 2 3 5 8 10 9 9 9 9 8 8 7
10 9 6 7 8 6 3 1 2 3 5 4 5 5 5 4 3 1 2 2 2 2 2 2 3 2 2 2 2 2 2 2 3 4 6 8 10 9 10 10 9 9 8
10 9 7 6 7 6 5 2 2 3 3 4 4 4 4 4 3 2 2 2 2 1 1 1 2 2 2 2 2 3 3 3 3 4 3 5 7 9 11 11 10 10 9
11 9 8 7 7 6 5 3 2 2 2 3 4 4 4 3 3 2 3 2 1 2 2 2 2 1 1 1 2 2 2 3 3 3 3 4 6 8 10 11 11 9 10
12 10 9 8 7 6 4 4 3 3 2 2 3 4 4 3 3 1 1 2 1 2 3 2 1 0 1 0 0 1 1 3 3 3 2 2 3 4 7 10 10 9 9
13 12 10 9 8 7 5 4 4 3 3 3 3 4 3 3 3 2 2 2 2 2 2 1 1 0 1 1 0 1 1 0 1 3 3 3 3 2 2 5 8 9 9
14 13 11 10 9 8 7 5 4 3 2 2 4 3 3 2 2 2 3 2 2 2 2 1 1 1 0 1 0 1 1 1 0 0 1 2 2 1 1 3 4 5 7
15 14 11 11 10 8 7 6 7 5 4 4 3 3 3 3 2 3 3 2 1 2 2 1 2 0 1 1 1 1 1 1 0 0 1 1 2 2 1 1 2 3 5
14 14 12 11 10 9 8 7 6 5 4 4 3 5 4 3 3 3 3 2 2 2 2 1 1 0 1 1 1 1 0 1 2 1 1 1 2 2 2 2 1 3 5
14 14 13 12 10 9 9 8 7 6 5 4 4 4 3 3 3 4 4 3 2 2 2 2 1 1 1 1 2 2 1 1 1 1 1 2 2 2 3 2 2 2 4
Wind_Direction
109 110 109 101 94 99 106 103 100 95 92 91 89 91 97 101 101 99 100 104 107 109 110 110 111 111 112 115 113 109 110 110 107 106 107 109 109 111 111 113 113 110 115
113 112 111 106 100 100 103 102 98 96 93 92 91 93 100 103 104 104 104 107 110 113 113 112 113 116 114 113 114 115 117 118 120 121 121 119 117 115 111 106 99 114 119
112 115 114 109 105 103 103 102 100 99 95 95 94 96 101 105 105 107 108 107 111 113 114 114 114 119 118 116 118 122 125 132 140 140 140 131 124 119 111 107 110 119 121
114 117 115 114 110 107 105 103 100 98 96 96 97 98 103 106 108 113 113 109 111 112 113 114 115 120 121 121 122 129 140 152 161 166 165 145 134 128 123 119 122 124 124
114 114 118 119 114 110 107 106 104 101 99 98 98 96 101 106 107 114 115 111 116 115 115 115 118 122 124 127 129 139 159 173 191 205 150 123 122 130 128 127 127 128 128
118 117 121 122 119 116 113 111 109 106 105 102 101 101 102 106 107 110 113 114 118 122 121 122 126 128 130 132 136 150 178 196 225 208 145 126 122 131 131 131 133 132 131
117 119 125 126 125 123 119 116 114 112 111 109 108 108 111 111 111 113 115 117 119 125 127 130 131 130 130 132 144 166 190 235 243 159 121 115 125 132 133 134 133 134 134
122 123 127 132 131 131 130 126 123 122 122 121 121 119 120 122 119 119 121 121 122 126 129 133 136 138 140 148 167 205 228 266 216 126 115 116 130 134 135 135 135 138 138
124 128 135 138 139 139 139 137 135 132 132 135 136 133 132 132 130 130 130 130 131 134 138 138 142 148 157 166 181 215 246 266 295 111 114 119 131 133 135 138 140 142 142
127 131 136 141 142 145 146 145 144 145 143 144 145 148 147 145 149 148 147 149 148 146 148 151 153 160 169 173 188 211 231 281 266 133 115 125 133 133 135 138 141 144 147
126 129 133 134 144 148 150 145 154 157 157 156 160 166 166 161 159 160 150 156 160 161 163 163 165 168 168 181 201 216 224 247 129 100 107 127 134 136 138 140 143 144 148
132 132 130 136 140 143 140 141 160 157 155 161 153 159 172 161 157 149 153 164 170 176 177 179 182 179 187 184 195 205 204 223 110 108 115 131 134 138 141 143 148 150 156
137 134 129 128 126 125 120 138 145 141 141 142 144 154 151 152 156 150 159 168 180 185 186 171 181 189 183 163 157 178 185 124 106 104 123 137 141 145 146 147 153 161 166
136 129 121 111 105 95 96 119 135 131 127 132 149 148 144 157 150 140 146 152 168 162 154 144 172 152 126 116 135 127 117 101 99 105 132 143 145 150 153 154 159 167 169
135 128 116 110 99 89 71 52 119 114 115 125 131 127 132 126 126 121 128 157 160 152 144 136 146 130 126 135 144 125 118 110 121 124 133 148 149 151 156 160 164 169 173
129 126 126 127 118 115 119 91 84 115 127 121 120 124 129 108 107 112 130 121 118 135 129 148 151 138 133 154 153 138 148 129 136 132 138 148 155 156 158 161 165 169 176
137 132 132 137 130 134 140 151 125 130 123 117 119 121 120 115 117 132 142 137 131 158 149 150 146 145 155 162 158 160 154 137 133 141 151 158 158 161 164 167 169 172 176
140 134 149 145 137 135 131 126 103 106 108 118 122 115 110 114 125 132 125 123 162 177 159 154 160 153 151 170 170 167 153 160 164 162 170 161 162 167 171 176 175 177 181
142 143 150 136 141 146 144 126 96 95 104 115 117 116 124 131 133 125 119 117 202 169 134 135 116 132 148 177 175 176 173 172 176 177 166 167 166 163 167 177 182 185 188
148 150 152 149 146 148 148 141 118 107 123 119 114 123 133 140 128 117 146 143 168 104 71 57 75 106 161 207 206 167 169 175 168 156 172 167 165 172 169 170 179 191 196
156 157 159 163 156 159 162 159 156 156 153 136 137 136 145 144 134 128 117 132 97 91 78 67 62 116 203 160 93 154 183 164 169 172 179 174 171 162 171 169 171 173 183
163 163 164 167 165 167 165 164 165 160 162 155 132 129 139 139 146 144 127 154 120 114 102 102 110 106 290 99 172 172 107 43 253 188 168 179 167 169 170 159 166 172 171
169 169 172 170 168 174 169 172 168 149 172 147 141 149 150 145 136 97 121 125 130 133 133 161 137 181 266 276 131 104 133 167 160 142 190 144 157 162 163 145 148 159 161
173 172 169 165 167 172 173 181 178 176 178 173 159 148 148 149 145 131 123 119 131 120 139 184 124 269 231 265 239 187 133 100 145 142 266 151 180 182 154 157 124 142 139
170 170 166 161 166 170 176 181 182 182 174 158 155 147 159 168 169 150 132 132 139 138 134 116 108 26 293 312 312 283 201 184 241 191 198 207 213 177 167 182 172 147 148
170 168 164 161 166 169 176 182 182 179 163 157 160 159 174 172 173 168 157 151 153 145 136 145 165 181 264 353 333 322 325 306 277 260 225 217 201 198 191 185 206 173 159
Height
1506 1506 1506 1506 1504 1501 1505 1510 1513 1514 1516 1517 1518 1519 1520 1521 1523 1524 1526 1527 1528 1530 1531 1532 1533 1535 1537 1538 1540 1542 1544 1545 1547 1548 1550 1551 1552 1553 1554 1555 1556 1556 1557
1507 1507 1508 1508 1508 1508 1510 1513 1515 1516 1518 1519 1520 1520 1521 1523 1524 1526 1527 1529 1530 1531 1533 1534 1535 1537 1538 1540 1542 1543 1545 1546 1548 1549 1551 1552 1553 1554 1555 1556 1557 1558 1558
1508 1509 1510 1511 1511 1512 1514 1515 1517 1518 1520 1521 1521 1522 1523 1524 1526 1527 1528 1530 1531 1533 1534 1536 1537 1538 1540 1542 1543 1545 1546 1548 1549 1551 1552 1553 1554 1555 1556 1557 1558 1559 1560
1510 1511 1512 1513 1514 1515 1516 1517 1519 1520 1521 1522 1523 1524 1525 1526 1527 1528 1530 1531 1533 1534 1536 1537 1538 1540 1541 1543 1545 1546 1548 1549 1551 1552 1552 1554 1555 1556 1557 1558 1559 1560 1561
1512 1513 1514 1515 1516 1517 1518 1519 1520 1522 1523 1524 1524 1525 1526 1527 1528 1529 1531 1533 1534 1536 1537 1539 1540 1541 1543 1544 1546 1547 1549 1550 1551 1552 1553 1554 1556 1557 1557 1558 1559 1560 1561
1514 1515 1516 1517 1518 1519 1520 1521 1522 1523 1524 1525 1526 1527 1527 1529 1529 1531 1532 1534 1536 1537 1538 1540 1541 1543 1544 1546 1547 1548 1550 1551 1552 1553 1554 1555 1556 1557 1558 1559 1560 1561 1562
1516 1517 1518 1519 1520 1521 1522 1522 1523 1525 1526 1526 1527 1528 1529 1530 1531 1532 1534 1535 1537 1538 1539 1541 1543 1544 1545 1547 1548 1549 1551 1552 1553 1554 1555 1556 1557 1557 1558 1559 1560 1561 1562
1518 1519 1520 1521 1521 1522 1523 1524 1525 1525 1526 1527 1528 1529 1530 1531 1532 1534 1535 1536 1538 1539 1541 1542 1543 1545 1546 1548 1549 1550 1552 1552 1554 1555 1556 1556 1557 1558 1558 1559 1560 1561 1563
1520 1521 1521 1522 1523 1524 1524 1525 1526 1526 1527 1528 1529 1530 1532 1533 1534 1535 1536 1538 1539 1540 1542 1543 1544 1546 1547 1548 1550 1551 1552 1553 1554 1555 1555 1556 1557 1558 1558 1560 1561 1562 1563
1522 1523 1523 1524 1525 1525 1525 1526 1526 1527 1528 1529 1530 1531 1533 1534 1535 1537 1538 1539 1540 1541 1543 1544 1545 1547 1548 1549 1551 1552 1553 1554 1555 1556 1555 1556 1557 1558 1558 1560 1561 1562 1563
1524 1525 1525 1526 1526 1526 1526 1526 1527 1527 1528 1529 1531 1532 1533 1535 1536 1538 1539 1541 1542 1543 1544 1545 1547 1548 1549 1551 1552 1553 1554 1554 1555 1556 1556 1557 1558 1558 1559 1560 1561 1562 1563
1525 1526 1526 1527 1527 1527 1528 1527 1528 1529 1530 1531 1532 1533 1535 1536 1538 1539 1541 1542 1543 1544 1545 1546 1548 1549 1550 1551 1552 1554 1554 1555 1556 1556 1556 1557 1558 1558 1559 1560 1561 1562 1563
1525 1526 1527 1528 1528 1528 1529 1529 1530 1531 1531 1532 1533 1534 1536 1537 1539 1540 1541 1543 1544 1545 1546 1547 1548 1549 1551 1552 1553 1554 1555 1555 1556 1556 1556 1557 1558 1558 1559 1560 1561 1562 1562
1525 1527 1528 1528 1528 1529 1529 1530 1531 1532 1533 1533 1534 1535 1537 1538 1540 1541 1542 1543 1544 1546 1547 1548 1549 1550 1551 1552 1553 1554 1555 1556 1556 1556 1557 1557 1558 1558 1559 1560 1560 1561 1562
1526 1527 1528 1529 1529 1530 1530 1531 1533 1533 1534 1535 1536 1537 1538 1539 1541 1542 1543 1544 1545 1547 1547 1548 1550 1550 1551 1552 1553 1554 1555 1556 1556 1557 1557 1557 1558 1558 1558 1559 1560 1560 1561
1526 1528 1529 1530 1530 1531 1532 1533 1534 1535 1535 1536 1537 1538 1539 1540 1541 1542 1543 1545 1546 1547 1548 1548 1550 1551 1552 1552 1553 1554 1555 1556 1556 1556 1556 1556 1557 1558 1558 1559 1559 1559 1560
1526 1527 1529 1530 1530 1531 1533 1534 1535 1536 1537 1537 1538 1539 1540 1541 1542 1543 1544 1545 1546 1547 1548 1549 1550 1551 1552 1553 1553 1554 1555 1555 1556 1556 1556 1556 1557 1557 1558 1558 1558 1559 1559
1525 1527 1529 1530 1531 1532 1533 1534 1536 1537 1537 1538 1539 1539 1540 1541 1542 1543 1544 1545 1546 1548 1548 1549 1550 1551 1552 1552 1553 1554 1554 1555 1555 1556 1556 1556 1556 1557 1557 1557 1558 1558 1558
1524 1526 1528 1530 1531 1532 1533 1535 1536 1537 1538 1539 1539 1540 1541 1542 1543 1544 1545 1545 1546 1548 1548 1549 1550 1550 1551 1552 1553 1553 1554 1554 1555 1555 1556 1556 1556 1557 1557 1557 1557 1558 1558
1523 1525 1527 1529 1530 1532 1533 1535 1536 1537 1538 1539 1540 1540 1541 1542 1543 1543 1544 1545 1546 1547 1548 1549 1549 1550 1551 1552 1553 1553 1553 1554 1555 1555 1556 1556 1557 1557 1557 1557 1557 1557 1557
1521 1523 1525 1528 1529 1531 1533 1534 1536 1537 1538 1539 1540 1541 1541 1542 1543 1543 1544 1545 1546 1546 1547 1548 1549 1549 1551 1552 1552 1553 1553 1554 1554 1555 1555 1556 1557 1557 1557 1557 1556 1556 1556
1519 1521 1523 1526 1528 1530 1531 1533 1535 1537 1538 1539 1540 1540 1541 1542 1542 1543 1543 1544 1545 1546 1547 1547 1548 1549 1550 1551 1552 1552 1553 1555 1554 1555 1555 1555 1556 1556 1556 1556 1556 1556 1555
1516 1518 1521 1524 1526 1528 1530 1532 1535 1536 1537 1539 1539 1540 1541 1542 1542 1543 1543 1544 1545 1545 1546 1547 1547 1548 1549 1550 1551 1552 1552 1553 1553 1554 1554 1554 1555 1555 1555 1556 1555 1555 1555
1514 1517 1519 1521 1524 1526 1529 1531 1533 1534 1536 1537 1539 1539 1540 1541 1541 1542 1542 1543 1544 1544 1545 1546 1546 1547 1549 1549 1551 1551 1552 1552 1553 1553 1554 1553 1554 1554 1554 1555 1555 1554 1554
1511 1514 1516 1519 1521 1524 1527 1529 1531 1533 1535 1537 1538 1539 1539 1540 1541 1541 1541 1542 1543 1543 1544 1544 1545 1546 1547 1548 1550 1551 1552 1552 1552 1552 1552 1553 1553 1553 1553 1553 1553 1553 1552
1508 1511 1513 1516 1519 1522 1524 1527 1529 1531 1533 1535 1536 1537 1538 1539 1539 1540 1541 1541 1542 1543 1543 1544 1544 1545 1546 1547 1548 1549 1550 1551 1551 1551 1551 1551 1551 1551 1551 1551 1551 1551 1551